Flag for Spain Weather past 2 weeks in Zaragoza, Spain

Now
75 °F

Scattered clouds.


Feels Like: 77 °F
Forecast: 52 / 72 °F
Wind: 10 mph from Southwest

Location: Zaragoza / Aeropuerto


UV Index: 5 (Moderate)

Visibility: N/A


Pressure: 30.07 "Hg

Humidity: 27%

Dew point: 39 °F

Location of ZaragozaLocation

Historic Weather in Zaragoza

°F

Zaragoza temperature yesterday

Maximum temperature yesterday: 70 °F (at 6:00 PM)
Minimum temperature yesterday: 48 °F (at 7:30 AM)
Average temperature yesterday: 59 °F

Past Weeks' High & Low Weather Summary

 TemperatureHumidityPressure
High82 °F (Apr 16, 5:30 PM)100% (Apr 20, 5:30 AM)30.27 "Hg (Apr 20, 5:30 AM)
Low46 °F (Apr 9, 7:30 AM)10% (Apr 18, 4:30 PM)29.56 "Hg (Apr 20, 6:00 AM)
Average62 °F58%29.96 "Hg
* Reported Apr 8 2:00 PM — Apr 23 2:30 PM, Zaragoza, Weather by CustomWeather, © 2014

Note: Actual official high and low records may vary slightly from our data, if they occured in-between our weather recording intervals... More about our weather records

Advertising

Historic Weather Conditions — Data for Previous 24 hours

 ConditionsComfort  
Time TempWeatherWind HumidityBarometerVisibility
2:30 PM
Apr 23
73 °FScattered clouds.13 mph29%30.07 "HgN/A
2:00 PM73 °FScattered clouds.10 mph29%30.09 "HgN/A
1:30 PM72 °FPassing clouds.12 mph33%30.09 "HgN/A
1:00 PM72 °FPassing clouds.10 mph31%30.09 "HgN/A
12:30 PM68 °FPassing clouds.1 mph46%30.09 "HgN/A
12:00 PM66 °FPassing clouds.5 mph52%30.09 "HgN/A
11:30 AM64 °FPassing clouds.3 mph56%30.12 "HgN/A
11:00 AM63 °FPassing clouds.3 mph59%30.12 "HgN/A
10:30 AM61 °FPassing clouds.7 mph63%30.09 "HgN/A
10:00 AM59 °FPassing clouds.5 mph63%30.09 "HgN/A
9:30 AM57 °FPassing clouds.3 mph67%30.09 "HgN/A
9:00 AM54 °FSunny.5 mph77%30.09 "Hg10 mi
8:30 AM52 °FPassing clouds.2 mph82%30.09 "HgN/A
8:00 AM50 °FPassing clouds.3 mph82%30.09 "HgN/A
7:30 AM48 °FPassing clouds.3 mph87%30.09 "HgN/A
7:00 AM48 °FPassing clouds.No wind87%30.09 "HgN/A
6:30 AM48 °FPassing clouds.No wind82%30.09 "HgN/A
6:00 AM48 °FPassing clouds.1 mph82%30.09 "HgN/A
5:30 AM48 °FClear.1 mph82%30.09 "Hg10 mi
5:00 AM48 °FClear.3 mph82%30.09 "Hg10 mi
4:30 AM48 °FClear.3 mph82%30.09 "Hg10 mi
4:00 AM50 °FPassing clouds.1 mph82%30.07 "HgN/A
3:30 AM54 °FPassing clouds.No wind72%30.07 "HgN/A
3:00 AM52 °FPassing clouds.No wind77%30.07 "HgN/A
2:30 AM54 °FPassing clouds.1 mph72%30.09 "HgN/A
2:00 AM54 °FPassing clouds.8 mph72%30.07 "HgN/A
1:30 AM55 °FPassing clouds.6 mph72%30.07 "HgN/A
1:00 AM55 °FPassing clouds.6 mph77%30.07 "HgN/A
12:30 AM57 °FPassing clouds.7 mph67%30.07 "HgN/A
12:00 AM57 °FPassing clouds.7 mph63%30.07 "HgN/A
11:30 PM
Apr 22
59 °FPassing clouds.7 mph63%30.04 "HgN/A
11:00 PM59 °FPassing clouds.7 mph68%30.04 "HgN/A
10:30 PM59 °FPassing clouds.8 mph63%30.01 "HgN/A
10:00 PM61 °FClear.6 mph59%30.01 "Hg10 mi
9:30 PM61 °FPassing clouds.5 mph59%29.98 "HgN/A
9:00 PM63 °FPassing clouds.6 mph52%29.98 "HgN/A
8:30 PM64 °FPassing clouds.7 mph49%29.95 "HgN/A
8:00 PM66 °FPassing clouds.9 mph43%29.95 "HgN/A
7:30 PM68 °FPassing clouds.10 mph40%29.95 "HgN/A
7:00 PM68 °FPassing clouds.8 mph40%29.92 "HgN/A
6:30 PM70 °FScattered clouds.7 mph40%29.92 "HgN/A
6:00 PM70 °FScattered clouds.9 mph40%29.92 "HgN/A
5:30 PM68 °FScattered clouds.9 mph46%29.92 "HgN/A
5:00 PM68 °FPassing clouds.10 mph43%29.92 "HgN/A
4:30 PM68 °FPassing clouds.10 mph46%29.92 "HgN/A
4:00 PM68 °FPassing clouds.10 mph46%29.92 "HgN/A
3:30 PM68 °FPassing clouds.12 mph46%29.92 "HgN/A
3:00 PM68 °FPassing clouds.12 mph49%29.92 "HgN/A
Weather by CustomWeather, © 2014

See weather overview